Time,TemperatureF,DewpointF,PressureIn,WindDirection,WindDirectionDegrees,WindSpeedMPH,WindSpeedGustMPH,Humidity,HourlyPrecipIn,Conditions,Clouds,dailyrainin,SoftwareType,DateUTC
2015-07-28 00:01:00,80.2,44.1,29.86,NE,41,6.0,6.0,28,0.00,,,0.00,Wunderground v.1.15,2015-07-28 07:01:00,
2015-07-28 00:07:00,80.0,44.0,29.86,NE,46,5.0,7.0,28,0.00,,,0.00,Wunderground v.1.15,2015-07-28 07:07:00,
2015-07-28 00:12:00,80.0,44.0,29.86,ENE,71,4.0,4.0,28,0.00,,,0.00,Wunderground v.1.15,2015-07-28 07:12:00,
2015-07-28 00:17:00,79.8,43.8,29.86,NE,41,4.0,5.0,28,0.00,,,0.00,Wunderground v.1.15,2015-07-28 07:17:00,
2015-07-28 00:22:00,79.6,43.6,29.86,ENE,57,4.0,4.0,28,0.00,,,0.00,Wunderground v.1.15,2015-07-28 07:22:00,
2015-07-28 00:27:00,79.2,44.2,29.86,NE,43,2.0,4.0,29,0.00,,,0.00,Wunderground v.1.15,2015-07-28 07:27:00,
2015-07-28 00:32:00,78.9,43.9,29.86,East,88,1.0,1.0,29,0.00,,,0.00,Wunderground v.1.15,2015-07-28 07:32:00,
2015-07-28 00:37:00,78.7,42.8,29.86,SE,136,0.0,1.0,28,0.00,,,0.00,Wunderground v.1.15,2015-07-28 07:37:00,
2015-07-28 00:42:00,78.8,42.9,29.86,SE,124,0.0,0.0,28,0.00,,,0.00,Wunderground v.1.15,2015-07-28 07:42:00,
2015-07-28 00:47:00,78.6,42.8,29.86,SE,124,0.0,0.0,28,0.00,,,0.00,Wunderground v.1.15,2015-07-28 07:47:00,
2015-07-28 00:53:00,78.5,43.6,29.86,SSE,150,0.0,0.0,29,0.00,,,0.00,Wunderground v.1.15,2015-07-28 07:53:00,
2015-07-28 00:58:00,78.5,42.7,29.86,SSW,197,0.0,0.0,28,0.00,,,0.00,Wunderground v.1.15,2015-07-28 07:58:00,
2015-07-28 01:03:00,78.2,44.2,29.86,SSW,197,0.0,6.0,30,0.00,,,0.00,Wunderground v.1.15,2015-07-28 08:03:00,
2015-07-28 01:09:00,78.0,44.9,29.86,NW,307,0.0,6.0,31,0.00,,,0.00,Wunderground v.1.15,2015-07-28 08:09:00,
2015-07-28 01:14:00,78.3,45.2,29.86,NNW,342,0.0,2.0,31,0.00,,,0.00,Wunderground v.1.15,2015-07-28 08:14:00,
2015-07-28 01:20:00,78.3,44.3,29.86,NE,43,1.0,4.0,30,0.00,,,0.00,Wunderground v.1.15,2015-07-28 08:20:00,
2015-07-28 01:25:00,79.2,43.3,29.86,NNE,23,2.0,5.0,28,0.00,,,0.00,Wunderground v.1.15,2015-07-28 08:25:00,
2015-07-28 01:30:00,79.8,42.8,29.86,NNE,29,3.0,5.0,27,0.00,,,0.00,Wunderground v.1.15,2015-07-28 08:30:00,
2015-07-28 01:35:00,80.1,42.1,29.86,NE,54,3.0,5.0,26,0.00,,,0.00,Wunderground v.1.15,2015-07-28 08:35:00,
2015-07-28 01:40:00,80.0,42.0,29.86,NNE,29,4.0,6.0,26,0.00,,,0.00,Wunderground v.1.15,2015-07-28 08:40:00,
2015-07-28 01:46:00,80.4,41.3,29.86,North,1,4.0,4.0,25,0.00,,,0.00,Wunderground v.1.15,2015-07-28 08:46:00,
2015-07-28 01:56:00,80.9,41.8,29.86,WSW,249,3.0,4.0,25,0.00,,,0.00,Wunderground v.1.15,2015-07-28 08:56:00,
2015-07-28 02:01:00,79.8,40.8,29.86,North,6,2.0,2.0,25,0.00,,,0.00,Wunderground v.1.15,2015-07-28 09:01:00,
2015-07-28 02:06:00,80.3,40.2,29.86,NE,53,2.0,3.0,24,0.00,,,0.00,Wunderground v.1.15,2015-07-28 09:06:00,
2015-07-28 02:17:00,80.5,40.4,29.86,ENE,61,3.0,3.0,24,0.00,,,0.00,Wunderground v.1.15,2015-07-28 09:17:00,
2015-07-28 02:22:00,80.0,41.0,29.86,ENE,67,2.0,3.0,25,0.00,,,0.00,Wunderground v.1.15,2015-07-28 09:22:00,
2015-07-28 02:27:00,80.0,41.0,29.86,ENE,72,2.0,3.0,25,0.00,,,0.00,Wunderground v.1.15,2015-07-28 09:27:00,
2015-07-28 02:32:00,80.2,41.2,29.86,NNE,15,1.0,2.0,25,0.00,,,0.00,Wunderground v.1.15,2015-07-28 09:32:00,
2015-07-28 02:38:00,79.7,41.8,29.86,NNE,15,0.0,2.0,26,0.00,,,0.00,Wunderground v.1.15,2015-07-28 09:38:00,